Zurück zum Katalog

SL-12 R/B(2)

AktivGEO
NORAD 19686·ROCKET BODY·🇷🇺 Russia

Gestartet Dec 10, 1988 von Baikonur Cosmodrome

Loading…

TLE

AktuellSource: Space-Track

Epoche: Sep 14, 2026, 04:34 UTC

1 19686U 88108D   26257.19066191 -.00000267  00000-0  00000-0 0  9996
2 19686  11.0498 327.2603 0014938 212.0768 151.6755  1.01519128125353

Verfolge SL-12 R/B(2) in Echtzeit mit AllMySat

Download on the App Store